STARLINK-37527, 68895

Orbit data source: Space-Track

STARLINK-37527, 68895 is a payload satellite owned by SpaceX/Seattle (US) in SSO that was launched on Thu, 30 Apr 2026 UTC via an FALCON 9 launch vehicle from the Air Force Western Test Range (AFWTR). Payload-class satellites include a variety of spacecraft equipped with specific instruments for various scientific and technological missions. These include communications satellites like Starlink; space stations such as the ISS; scientific satellites like the Hubble; Earth observation satellites from companies like Planet Labs, Umbra, and HawkEye 360; GPS; miniature CubeSats for education and research; and military/defense satellites.

Loading next visibility...
Identifier
68895, 2026-097A
Orbit
SSO
Country
Flag of USUS
Related business
Manufacturer
SpaceX/Seattle
Mission
Operational spacecraft
Bus & Motor
STARLINK V2MO, Unknown motor
Mass
575 kg wet, ~530 kg dry
Launch date (UTC)
2026-04-30 (2 months ago)
Launch vehicle
FALCON 9
Launch site
Air Force Western Test Range (AFWTR)
Object type
Payload
Rocket body
Debris
Shape & HBR
Unknown shape, 14.5 m
Radar Cross Section
Large (>1 m²)

Expand to show TLE details & history
Last TLE update: 14 hours ago

TLE from 14 hours ago
0 STARLINK-37527
1 68895U 26097A   26171.27169174  .00013713  00000-0  42630-3 0  9997
2 68895  97.2860   6.6601 0002196  89.6362 270.5132 15.33444873  7954
Epoch: 2026-06-20T06:31Z
TLE epoch observation values (Epoch: 2026-06-20T06:31:14.166Z)
Latitude
-0.00005°
Longitude
0.36238°
Altitude
468.642 km
Speed
7.632 km/s
True Right ascension
00h 26m 38s
True Declination
0° 00' 00"
Sunlit
Object was in daylight at epoch
Visualization orbit readout
Latitude
Unknown
Longitude
Unknown
Altitude
Unknown
Speed
Unknown
Apparent Right ascension
Unknown
Apparent Declination
Unknown
Sunlit
N/A
Visualization observer readout
Local Sidereal Time
07:20:11
Azimuth
Unknown
Elevation
Unknown
Doppler factor
Unknown
Orbital elements
Apogee altitude
463.989 km
Perigee altitude
460.984 km
Semi-major axis
6,840.623 km
Eccentricity
0.00022
Inclination
97.286°
RAAN
6.6601°
Arg. of periapsis
89.6362°
True anomaly
270.48804°
Mean anomaly
270.5132°
Eccentric anomaly
270.50062°
Mean motion
3.83619 °/min
Orbital period
93.84 mins
BSTAR
0.0004263
Loading maneuver chart data...
Computing Atmospheric mass density...
Loading historical data...
Loading historical data...
Loading historical data...
Loading historical data...
Loading historical data...
Loading historical data...
Loading historical data...

Documentation

Showing up to 5 results
|